Regional Weather Roundup
Issued by NWS

Home | Current Version | Previous Version | Graphics & Text | Print | Product List | Glossary On
Versions: 1 2 3 4 5 6 7 8 9 10 11 12 13 14 15 16 17 18 19 20 21 22 23 24 25 26 27 28 29 30 31 32 33 34 35 36 37 38 39 40 41 42 43 44 45 46 47 48 49 50
478
ASUS45 KCYS 040910
RWRWY

WYOMING REGIONAL WEATHER ROUNDUP
NATIONAL WEATHER SERVICE CHEYENNE WY
300 AM MDT WED MAY 04 2016

NOTE:  "FAIR" INDICATES FEW OR NO CLOUDS BELOW 12,000 FEET
WITH NO SIGNIFICANT WEATHER AND/OR OBSTRUCTIONS TO VISIBILITY.

WYZ001-041000-
YELLOWSTONE NATIONAL PARK

CITY           SKY/WX    TMP DP  RH WIND       PRES   REMARKS
LK YELLOWSTONE   N/A     28  23  81 CALM      30.36S
W YELLOWSTONE  NOT AVBL

$$
WYZ002>013-054>058-071-098>099-041000-
NORTHERN WYOMING

CITY           SKY/WX    TMP DP  RH WIND       PRES   REMARKS
JACKSON        FAIR      34  27  75 N6        30.30S WCI  29
CODY           FAIR      52  30  43 SW7       30.16S
GREYBULL       FAIR      51  34  52 SE3       30.14S
WORLAND        FAIR      50  35  56 CALM      30.15S
SHERIDAN       FAIR      42  35  76 CALM      30.12F
BUFFALO        FAIR      54  31  41 W6        30.17F
GILLETTE       FAIR      47  38  71 S12       30.16S
HULETT         FAIR      46  36  66 S7        30.17F
NEWCASTLE      FAIR      45  34  65 NE5       30.19S

$$
WYZ014>020-022>026-101>103-041000-
CENTRAL WYOMING

CITY           SKY/WX    TMP DP  RH WIND       PRES   REMARKS
BIG PINEY      FAIR      34  23  64 N3        30.31S
PINEDALE       PTSUNNY   30  28  93 NW6       30.32S WCI  24
DUBOIS         FAIR      36  27  69 W10       30.31S WCI  28
LANDER         FAIR      47  31  53 NW7       30.22S
RIVERTON       FAIR      45  35  68 NW6       30.23S
CASPER         FAIR      40  33  76 W6        30.23S
DOUGLAS        FAIR      37  35  92 CALM      30.23S

$$
WYZ021-027>030-104>119-041000-
SOUTHERN WYOMING

CITY           SKY/WX    TMP DP  RH WIND       PRES   REMARKS
EVANSTON       FAIR      45  28  51 SE7       30.29S
KEMMERER         N/A     37  28  70 NW13      30.30F WCI  29
FORT BRIDGER   SUNNY     48  27  43 W3        30.31F
ROCK SPRINGS   FAIR      45  26  47 E3        30.28F
DIXON          FAIR      40  29  64 E6        30.33R
RAWLINS        FAIR      34  28  79 CALM      30.30S
SARATOGA       FAIR      36  28  75 CALM      30.32S
LARAMIE        FAIR      32  28  85 S7        30.31S WCI  26
CHEYENNE       FAIR      40  33  76 W9        30.26F WCI  34
TORRINGTON     FAIR      44  37  76 W5        30.18S
PINE BLUFFS    FAIR      36  34  93 W3        30.23F

$$




USA.gov is the U.S. government's official web portal to all federal, state and local government web resources and services.